HK4RAU-90 Weather Reports


Display with metric or nautical units.
time (UTC)temp
F
wind
direction
speed
MPH
gust
MPH
rain 1hr
in
rain 24hr
in
rain mn
in
humidity
%
barometer
mb
20260507113511 66 213 1.0 1.0 0.00 0.00 0.00 99 1014.0
20260507113204 66 213 1.0 1.0 0.00 0.00 0.00 99 1014.0
20260507112853 67 213 1.0 1.0 0.00 0.00 0.00 99 1013.0
20260507112546 67 213 1.0 1.0 0.00 0.00 0.00 99 1013.0
20260507112240 67 213 1.0 1.0 0.00 0.00 0.00 99 1013.0
20260507111933 68 213 1.0 1.0 0.00 0.00 0.00 99 1013.0
20260507111626 67 213 1.0 1.0 0.00 0.00 0.00 99 1013.0
20260507111325 68 213 1.0 1.0 0.00 0.00 0.00 99 1013.0
20260507111017 68 213 1.0 1.0 0.00 0.00 0.00 99 1013.0
20260507110711 69 213 1.0 1.0 0.00 0.00 0.00 99 1013.0
20260507110356 70 213 1.0 1.0 0.00 0.00 0.00 99 1013.0
20260507110049 71 213 1.0 1.0 0.00 0.00 0.00 99 1013.0
20260507105738 71 213 1.0 1.0 0.00 0.00 0.00 99 1013.0
20260507105431 65 189 1.0 1.0 0.00 0.00 0.00 99 1013.0
20260507105124 71 213 1.0 1.0 0.00 0.00 0.00 99 1013.0
20260507104823 65 189 1.0 1.0 0.00 0.00 0.00 99 1013.0
20260507104520 65 189 1.0 1.0 0.00 0.00 0.00 99 1013.0
20260507104213 66 189 1.0 1.0 0.00 0.00 0.00 99 1013.0
20260507103907 66 189 1.0 1.0 0.00 0.00 0.00 99 1013.0
20260507103559 66 189 1.0 1.0 0.00 0.00 0.00 99 1013.0
20260507103252 66 189 1.0 1.0 0.00 0.00 0.00 99 1013.0
20260507102946 67 189 1.0 1.0 0.00 0.00 0.00 99 1013.0
20260507102639 67 189 1.0 1.0 0.00 0.00 0.00 99 1013.0
20260507102338 67 189 1.0 1.0 0.00 0.00 0.00 99 1013.0
20260507102031 68 189 1.0 1.0 0.00 0.00 0.00 99 1013.0
20260507101730 67 189 1.0 1.0 0.00 0.00 0.00 99 1013.0
20260507101418 67 189 1.0 1.0 0.00 0.00 0.00 99 1013.0
20260507101112 68 189 1.0 1.0 0.00 0.00 0.00 99 1013.0
20260507100811 69 189 1.0 1.0 0.00 0.00 0.00 99 1013.0
20260507100509 68 189 1.0 1.0 0.00 0.00 0.00 99 1013.0
20260507100208 69 189 1.0 1.0 0.00 0.00 0.00 99 1013.0
20260507095902 69 189 1.0 1.0 0.00 0.00 0.00 99 1013.0
20260507095555 70 189 1.0 1.0 0.00 0.00 0.00 99 1013.0
20260507095248 69 189 1.0 1.0 0.00 0.00 0.00 99 1013.0
20260507094943 70 189 1.0 1.0 0.00 0.00 0.00 99 1013.0
20260507094637 70 189 1.0 1.0 0.00 0.00 0.00 99 1013.0
20260507094335 65 189 1.0 1.0 0.00 0.00 0.00 99 1013.0
20260507094034 66 189 1.0 1.0 0.00 0.00 0.00 99 1013.0
20260507093412 66 189 1.0 1.0 0.00 0.00 0.00 99 1013.0
20260507093105 66 189 1.0 1.0 0.00 0.00 0.00 99 1013.0
20260507092759 67 132 0.0 0.0 0.00 0.00 0.00 99 1013.0
20260507092449 68 132 0.0 0.0 0.00 0.00 0.00 99 1013.0
20260507091837 70 132 0.0 0.0 0.00 0.00 0.00 99 1013.0
20260507091531 68 132 0.0 0.0 0.00 0.00 0.00 99 1013.0
20260507091222 69 132 0.0 0.0 0.00 0.00 0.00 99 1013.0
20260507090916 70 132 0.0 0.0 0.00 0.00 0.00 99 1013.0
20260507090609 71 132 0.0 0.0 0.00 0.00 0.00 99 1013.0
20260507090303 65 273 1.0 0.0 0.00 0.00 0.00 98 1012.0
20260507085956 65 273 1.0 0.0 0.00 0.00 0.00 98 1012.0
20260507085655 66 273 1.0 0.0 0.00 0.00 0.00 98 1012.0
20260507085343 67 273 1.0 0.0 0.00 0.00 0.00 98 1012.0
20260507085037 68 273 1.0 0.0 0.00 0.00 0.00 98 1012.0
20260507084730 66 273 1.0 0.0 0.00 0.00 0.00 98 1012.0
20260507084419 67 273 1.0 0.0 0.00 0.00 0.00 98 1012.0
20260507084117 68 273 1.0 0.0 0.00 0.00 0.00 98 1012.0
20260507083816 69 273 1.0 0.0 0.00 0.00 0.00 98 1012.0
20260507083510 69 273 1.0 0.0 0.00 0.00 0.00 98 1012.0
20260507083204 69 273 1.0 0.0 0.00 0.00 0.00 98 1012.0
20260507082856 69 273 1.0 0.0 0.00 0.00 0.00 98 1012.0
20260507082548 70 273 1.0 0.0 0.00 0.00 0.00 98 1012.0
20260507082247 70 273 1.0 0.0 0.00 0.00 0.00 98 1012.0
20260507081940 70 273 1.0 0.0 0.00 0.00 0.00 98 1012.0
20260507081639 71 273 1.0 0.0 0.00 0.00 0.00 98 1012.0
20260507081333 70 273 1.0 0.0 0.00 0.00 0.00 98 1012.0
20260507081026 71 273 1.0 0.0 0.00 0.00 0.00 98 1012.0
20260507080720 65 273 1.0 0.0 0.00 0.00 0.00 98 1012.0
20260507080413 66 273 1.0 0.0 0.00 0.00 0.00 98 1012.0
20260507080107 65 273 1.0 0.0 0.00 0.00 0.00 98 1012.0
20260507075755 66 273 1.0 0.0 0.00 0.00 0.00 98 1012.0
20260507075449 67 273 1.0 0.0 0.00 0.00 0.00 98 1012.0
20260507075142 67 273 1.0 0.0 0.00 0.00 0.00 98 1012.0
20260507074840 67 273 1.0 0.0 0.00 0.00 0.00 98 1012.0
20260507074534 67 273 1.0 0.0 0.00 0.00 0.00 98 1012.0
20260507074228 68 273 1.0 0.0 0.00 0.00 0.00 98 1012.0
20260507073921 68 273 1.0 0.0 0.00 0.00 0.00 98 1012.0
20260507073618 68 273 1.0 0.0 0.00 0.00 0.00 98 1012.0
20260507073316 68 273 1.0 0.0 0.00 0.00 0.00 98 1012.0
20260507073010 69 251 0.0 0.0 0.00 0.00 0.00 98 1013.0
20260507072702 69 251 0.0 0.0 0.00 0.00 0.00 98 1013.0
20260507072355 68 251 0.0 0.0 0.00 0.00 0.00 98 1013.0
20260507072049 69 251 0.0 0.0 0.00 0.00 0.00 98 1013.0
20260507071737 70 251 0.0 0.0 0.00 0.00 0.00 98 1013.0
20260507071426 71 251 0.0 0.0 0.00 0.00 0.00 98 1013.0
20260507071119 65 251 0.0 0.0 0.00 0.00 0.00 98 1013.0
20260507070817 71 251 0.0 0.0 0.00 0.00 0.00 98 1013.0
20260507070516 65 251 0.0 0.0 0.00 0.00 0.00 98 1013.0
20260507070209 66 251 0.0 0.0 0.00 0.00 0.00 98 1013.0
20260507065908 67 251 0.0 0.0 0.00 0.00 0.00 98 1013.0
20260507065601 67 251 0.0 0.0 0.00 0.00 0.00 98 1013.0
20260507065255 67 251 0.0 0.0 0.00 0.00 0.00 98 1013.0
20260507064948 68 251 0.0 0.0 0.00 0.00 0.00 98 1013.0
20260507064641 69 251 0.0 0.0 0.00 0.00 0.00 98 1013.0
20260507064334 69 251 0.0 0.0 0.00 0.00 0.00 98 1013.0
20260507064028 69 251 0.0 0.0 0.00 0.00 0.00 98 1013.0
20260507063716 69 251 0.0 0.0 0.00 0.00 0.00 98 1013.0
20260507063410 69 251 0.0 0.0 0.00 0.00 0.00 98 1013.0
20260507063104 70 206 0.0 0.0 0.00 0.00 0.00 98 1013.0
20260507062802 70 206 0.0 0.0 0.00 0.00 0.00 98 1013.0
20260507062501 71 206 0.0 0.0 0.00 0.00 0.00 98 1013.0
20260507062154 66 182 1.0 1.0 0.00 0.00 0.00 98 1013.0
20260507061851 66 182 1.0 1.0 0.00 0.00 0.00 98 1013.0
20260507061544 66 182 1.0 1.0 0.00 0.00 0.00 98 1013.0
20260507061243 67 182 1.0 1.0 0.00 0.00 0.00 98 1013.0
20260507060936 67 182 1.0 1.0 0.00 0.00 0.00 98 1013.0
20260507060633 67 182 1.0 1.0 0.00 0.00 0.00 98 1013.0
20260507060330 68 182 1.0 1.0 0.00 0.00 0.00 98 1013.0
20260507060022 69 182 1.0 1.0 0.00 0.00 0.00 98 1013.0
20260507055721 69 182 1.0 1.0 0.00 0.00 0.00 98 1013.0
20260507055414 69 182 1.0 1.0 0.00 0.00 0.00 98 1013.0
20260507055113 69 182 1.0 1.0 0.00 0.00 0.00 98 1013.0
20260507054801 70 182 1.0 1.0 0.00 0.00 0.00 98 1013.0
20260507054454 70 182 1.0 1.0 0.00 0.00 0.00 98 1013.0
20260507054148 70 182 1.0 1.0 0.00 0.00 0.00 98 1013.0
20260507053525 71 182 1.0 1.0 0.00 0.00 0.00 98 1013.0
20260507053223 71 182 1.0 1.0 0.00 0.00 0.00 98 1013.0
20260507052607 66 182 1.0 1.0 0.00 0.00 0.00 97 1014.0
20260507052306 67 182 1.0 1.0 0.00 0.00 0.00 97 1014.0
20260507051958 66 182 1.0 1.0 0.00 0.00 0.00 97 1014.0
20260507051651 67 182 1.0 1.0 0.00 0.00 0.00 97 1014.0
20260507050840 68 182 1.0 1.0 0.00 0.00 0.00 97 1014.0
20260507045819 69 182 1.0 1.0 0.00 0.00 0.00 97 1014.0
20260507045518 69 182 1.0 1.0 0.00 0.00 0.00 97 1014.0
20260507044910 70 182 1.0 1.0 0.00 0.00 0.00 97 1014.0
20260507044603 71 182 1.0 1.0 0.00 0.00 0.00 97 1014.0
20260507044257 70 182 1.0 1.0 0.00 0.00 0.00 97 1014.0
20260507043950 71 182 1.0 1.0 0.00 0.00 0.00 97 1014.0
20260507043649 71 182 1.0 1.0 0.00 0.00 0.00 97 1014.0
20260507043347 72 182 1.0 1.0 0.00 0.00 0.00 97 1015.0
20260507043046 72 182 1.0 1.0 0.00 0.00 0.00 97 1015.0
20260507042745 71 182 1.0 1.0 0.00 0.00 0.00 97 1015.0
20260507042443 72 182 1.0 1.0 0.00 0.00 0.00 97 1015.0
20260507042136 72 182 1.0 1.0 0.00 0.00 0.00 97 1015.0
20260507041834 66 207 1.0 1.0 0.00 0.00 0.00 97 1015.0
20260507041528 67 207 1.0 1.0 0.00 0.00 0.00 97 1015.0
20260507041221 66 207 1.0 1.0 0.00 0.00 0.00 97 1015.0
20260507040920 66 207 1.0 1.0 0.00 0.00 0.00 97 1015.0
20260507040618 67 207 1.0 1.0 0.00 0.00 0.00 97 1015.0
20260507040311 68 207 1.0 1.0 0.00 0.00 0.00 97 1015.0
20260507040005 69 207 1.0 1.0 0.00 0.00 0.00 97 1015.0
20260507035704 69 207 1.0 1.0 0.00 0.00 0.00 97 1015.0
20260507035357 70 207 1.0 1.0 0.00 0.00 0.00 97 1015.0
20260507035055 70 207 1.0 1.0 0.00 0.00 0.00 97 1015.0
20260507034749 69 207 1.0 1.0 0.00 0.00 0.00 97 1015.0
20260507034448 70 207 1.0 1.0 0.00 0.00 0.00 97 1015.0
20260507034146 71 207 1.0 1.0 0.00 0.00 0.00 97 1015.0
20260507033844 72 207 1.0 1.0 0.00 0.00 0.00 97 1015.0
20260507033538 71 207 1.0 1.0 0.00 0.00 0.00 97 1015.0
20260507033226 72 207 1.0 1.0 0.00 0.00 0.00 97 1015.0
20260507032920 72 207 1.0 1.0 0.00 0.00 0.00 97 1015.0
20260507032613 67 213 1.0 1.0 0.00 0.00 0.00 96 1015.0
20260507032312 72 207 1.0 1.0 0.00 0.00 0.00 97 1015.0
20260507032010 67 213 1.0 1.0 0.00 0.00 0.00 96 1015.0
20260507031709 67 213 1.0 1.0 0.00 0.00 0.00 96 1015.0
20260507031407 67 213 1.0 1.0 0.00 0.00 0.00 96 1015.0
20260507031100 68 213 1.0 1.0 0.00 0.00 0.00 96 1015.0
20260507030759 68 213 1.0 1.0 0.00 0.00 0.00 96 1015.0
20260507030447 69 213 1.0 1.0 0.00 0.00 0.00 96 1015.0
20260507030146 70 213 1.0 1.0 0.00 0.00 0.00 96 1015.0
20260507025840 70 213 1.0 1.0 0.00 0.00 0.00 96 1015.0
20260507025538 70 213 1.0 1.0 0.00 0.00 0.00 96 1015.0
20260507025237 71 213 1.0 1.0 0.00 0.00 0.00 96 1015.0
20260507024925 71 213 1.0 1.0 0.00 0.00 0.00 96 1015.0
20260507024624 71 213 1.0 1.0 0.00 0.00 0.00 96 1015.0
20260507024323 71 213 1.0 1.0 0.00 0.00 0.00 96 1015.0
20260507024021 72 213 1.0 1.0 0.00 0.00 0.00 96 1015.0
20260507023720 72 213 1.0 1.0 0.00 0.00 0.00 96 1015.0
20260507023418 73 213 1.0 1.0 0.00 0.00 0.00 96 1014.0
20260507023116 72 213 1.0 1.0 0.00 0.00 0.00 96 1015.0
20260507022814 73 213 1.0 1.0 0.00 0.00 0.00 96 1014.0